Year,Month,Day,Hour,Minute,Value (Times are PST for temperature in C)
2017,01,15,10,11,1.90
2017,01,15,10,12,1.90
2017,01,15,10,13,2.00
2017,01,15,10,14,2.00
2017,01,15,10,15,2.00
2017,01,15,10,16,2.00
2017,01,15,10,17,2.00
2017,01,15,10,18,2.10
2017,01,15,10,19,2.10
2017,01,15,10,20,2.10
2017,01,15,10,21,2.10
2017,01,15,10,22,2.20
2017,01,15,10,23,2.20
2017,01,15,10,24,2.20
2017,01,15,10,25,2.20
2017,01,15,10,26,2.30
2017,01,15,10,27,2.30
2017,01,15,10,28,2.30
2017,01,15,10,29,2.40
2017,01,15,10,30,2.40
2017,01,15,10,31,2.40
2017,01,15,10,32,2.40
2017,01,15,10,33,2.40
2017,01,15,10,34,2.40
2017,01,15,10,35,2.40
2017,01,15,10,36,2.40
2017,01,15,10,37,2.40
2017,01,15,10,38,2.40
2017,01,15,10,39,2.40
2017,01,15,10,40,2.40
2017,01,15,10,41,2.40
2017,01,15,10,42,2.40
2017,01,15,10,43,2.40
2017,01,15,10,44,2.40
2017,01,15,10,45,2.40
2017,01,15,10,46,2.40
2017,01,15,10,47,2.50
2017,01,15,10,48,2.50
2017,01,15,10,49,2.60
2017,01,15,10,50,2.60
2017,01,15,10,51,2.70
2017,01,15,10,52,2.70
2017,01,15,10,53,2.80
2017,01,15,10,54,2.90
2017,01,15,10,55,3.00
2017,01,15,10,56,3.00
2017,01,15,10,57,3.10
2017,01,15,10,58,3.20
2017,01,15,10,59,3.20
2017,01,15,11,00,3.20
2017,01,15,11,01,3.30
2017,01,15,11,02,3.30
2017,01,15,11,03,3.40
2017,01,15,11,04,3.50
2017,01,15,11,05,3.60
2017,01,15,11,06,3.70
2017,01,15,11,07,3.70
2017,01,15,11,08,3.80
2017,01,15,11,09,3.80
2017,01,15,11,10,3.80
2017,01,15,11,11,3.80
2017,01,15,11,12,3.90
2017,01,15,11,13,4.00
2017,01,15,11,14,4.00
2017,01,15,11,15,4.10
2017,01,15,11,16,4.10
2017,01,15,11,17,4.10
2017,01,15,11,18,4.10
2017,01,15,11,19,4.10
2017,01,15,11,20,4.30
2017,01,15,11,21,4.30
2017,01,15,11,22,4.40
2017,01,15,11,23,4.50
2017,01,15,11,24,4.60
2017,01,15,11,25,4.60
2017,01,15,11,26,4.70
2017,01,15,11,27,4.70
2017,01,15,11,28,4.70
2017,01,15,11,29,4.80
2017,01,15,11,30,4.80
2017,01,15,11,31,4.80
2017,01,15,11,32,4.90
2017,01,15,11,33,4.90
2017,01,15,11,34,5.00
2017,01,15,11,35,5.00
2017,01,15,11,36,5.00
2017,01,15,11,37,5.10
2017,01,15,11,38,5.10
2017,01,15,11,39,5.20
2017,01,15,11,40,5.20
2017,01,15,11,41,5.10
2017,01,15,11,42,5.10
2017,01,15,11,43,5.20
2017,01,15,11,44,5.20
2017,01,15,11,45,5.20
2017,01,15,11,46,5.20
2017,01,15,11,47,5.20
2017,01,15,11,48,5.20
2017,01,15,11,49,5.20
2017,01,15,11,50,5.20
2017,01,15,11,51,5.20
2017,01,15,11,52,5.30
2017,01,15,11,53,5.30
2017,01,15,11,54,5.30
2017,01,15,11,55,5.30
2017,01,15,11,56,5.30
2017,01,15,11,57,5.30
2017,01,15,11,58,5.30
2017,01,15,11,59,5.40
2017,01,15,12,00,5.40
2017,01,15,12,01,5.40
2017,01,15,12,02,5.40
2017,01,15,12,03,5.40
2017,01,15,12,04,5.40
2017,01,15,12,05,5.40
2017,01,15,12,06,5.40
2017,01,15,12,07,5.50
2017,01,15,12,08,5.50
2017,01,15,12,09,5.60
2017,01,15,12,10,5.60
2017,01,15,12,11,5.60
2017,01,15,12,12,5.60
2017,01,15,12,13,5.60
2017,01,15,12,14,5.70
2017,01,15,12,15,5.70
2017,01,15,12,16,5.70
2017,01,15,12,17,5.80
2017,01,15,12,18,5.80
2017,01,15,12,19,5.80
2017,01,15,12,20,5.80
2017,01,15,12,21,5.80
2017,01,15,12,22,5.80
2017,01,15,12,23,5.80
2017,01,15,12,24,5.90
2017,01,15,12,25,5.90
2017,01,15,12,26,5.90
2017,01,15,12,27,5.90
2017,01,15,12,28,6.00
2017,01,15,12,29,6.00
2017,01,15,12,30,6.10
2017,01,15,12,31,6.10
2017,01,15,12,32,6.10
2017,01,15,12,33,6.10
2017,01,15,12,34,6.10
2017,01,15,12,35,6.20
2017,01,15,12,36,6.20
2017,01,15,12,37,6.20
2017,01,15,12,38,6.20
2017,01,15,12,39,6.20
2017,01,15,12,40,6.20
2017,01,15,12,41,6.20
2017,01,15,12,42,6.20
2017,01,15,12,43,6.30
2017,01,15,12,44,6.30
2017,01,15,12,45,6.30
2017,01,15,12,46,6.30
2017,01,15,12,47,6.30
2017,01,15,12,48,6.40
2017,01,15,12,49,6.40
2017,01,15,12,50,6.50
2017,01,15,12,51,6.50
2017,01,15,12,52,6.60
2017,01,15,12,53,6.60
2017,01,15,12,54,6.70
2017,01,15,12,55,6.70
2017,01,15,12,56,6.80
2017,01,15,12,57,6.80
2017,01,15,12,58,6.80
2017,01,15,12,59,6.80
2017,01,15,13,00,6.80
2017,01,15,13,01,6.90
2017,01,15,13,02,6.90
2017,01,15,13,03,6.90
2017,01,15,13,04,6.90
2017,01,15,13,05,6.90
2017,01,15,13,06,7.00
2017,01,15,13,07,7.00
2017,01,15,13,08,7.10
2017,01,15,13,09,7.10
2017,01,15,13,10,7.10
2017,01,15,13,11,7.10
2017,01,15,13,12,7.10
2017,01,15,13,13,7.10
2017,01,15,13,14,7.20
2017,01,15,13,15,7.20
2017,01,15,13,16,7.20
2017,01,15,13,17,7.30
2017,01,15,13,18,7.30
2017,01,15,13,19,7.30
2017,01,15,13,20,7.30
2017,01,15,13,21,7.30
2017,01,15,13,22,7.40
2017,01,15,13,23,7.40
2017,01,15,13,24,7.50
2017,01,15,13,25,7.50
2017,01,15,13,26,7.60
2017,01,15,13,27,7.60
2017,01,15,13,28,7.60
2017,01,15,13,29,7.60
2017,01,15,13,30,7.60
2017,01,15,13,31,7.60
2017,01,15,13,32,7.60
2017,01,15,13,33,7.50
2017,01,15,13,34,7.50
2017,01,15,13,35,7.50
2017,01,15,13,36,7.50
2017,01,15,13,37,7.50
2017,01,15,13,38,7.50
2017,01,15,13,39,7.50
2017,01,15,13,40,7.50
2017,01,15,13,41,7.50
2017,01,15,13,42,7.60
2017,01,15,13,43,7.60
2017,01,15,13,44,7.60
2017,01,15,13,45,7.60
2017,01,15,13,46,7.70
2017,01,15,13,47,7.70
2017,01,15,13,48,7.70
2017,01,15,13,49,7.70
2017,01,15,13,50,7.70
2017,01,15,13,51,7.70
2017,01,15,13,52,7.70
2017,01,15,13,53,7.70
2017,01,15,13,54,7.70
2017,01,15,13,55,7.70
2017,01,15,13,56,7.80
2017,01,15,13,57,7.80
2017,01,15,13,58,7.90
2017,01,15,13,59,7.90
2017,01,15,14,00,7.90
2017,01,15,14,01,8.00
2017,01,15,14,02,8.00
2017,01,15,14,03,8.00
2017,01,15,14,04,8.00
2017,01,15,14,05,8.10
2017,01,15,14,06,8.10
2017,01,15,14,07,8.10
2017,01,15,14,08,8.10
2017,01,15,14,09,8.10
2017,01,15,14,10,8.10
2017,01,15,14,11,8.10
2017,01,15,14,12,8.10
2017,01,15,14,13,8.10
2017,01,15,14,14,8.10
2017,01,15,14,15,8.20
2017,01,15,14,16,8.20
2017,01,15,14,17,8.20
2017,01,15,14,18,8.20
2017,01,15,14,19,8.30
2017,01,15,14,20,8.30
2017,01,15,14,21,8.30
2017,01,15,14,22,8.20
2017,01,15,14,23,8.20
2017,01,15,14,24,8.20
2017,01,15,14,25,8.20
2017,01,15,14,26,8.10
2017,01,15,14,27,8.10
2017,01,15,14,28,8.10
2017,01,15,14,29,8.10
2017,01,15,14,30,8.00
2017,01,15,14,31,8.00
2017,01,15,14,32,7.90
2017,01,15,14,33,7.90
2017,01,15,14,34,7.80
2017,01,15,14,35,7.80
2017,01,15,14,36,7.80
2017,01,15,14,37,7.70
2017,01,15,14,38,7.70
2017,01,15,14,39,7.70
2017,01,15,14,40,7.70
2017,01,15,14,41,7.60
2017,01,15,14,42,7.60
2017,01,15,14,43,7.50
2017,01,15,14,44,7.50
2017,01,15,14,45,7.40
2017,01,15,14,46,7.40
2017,01,15,14,47,7.30
2017,01,15,14,48,7.30
2017,01,15,14,49,7.20
2017,01,15,14,50,7.20
2017,01,15,14,51,7.10
2017,01,15,14,52,7.10
2017,01,15,14,53,7.10
2017,01,15,14,54,7.10
2017,01,15,14,55,7.10
2017,01,15,14,56,7.10
2017,01,15,14,57,7.00
2017,01,15,14,58,7.00
2017,01,15,14,59,7.00
2017,01,15,15,00,7.00
2017,01,15,15,01,7.00
2017,01,15,15,02,7.00
2017,01,15,15,03,7.00
2017,01,15,15,04,6.90
2017,01,15,15,05,6.90
2017,01,15,15,06,6.90
2017,01,15,15,07,6.90
2017,01,15,15,08,6.90
2017,01,15,15,09,6.90
2017,01,15,15,10,6.90
2017,01,15,15,11,6.90
2017,01,15,15,12,6.90
2017,01,15,15,13,6.90
2017,01,15,15,14,6.90
2017,01,15,15,15,6.90
2017,01,15,15,16,6.90
2017,01,15,15,17,6.90
2017,01,15,15,18,6.90
2017,01,15,15,19,6.90
2017,01,15,15,20,6.90
2017,01,15,15,21,6.90
2017,01,15,15,22,6.90
2017,01,15,15,23,6.90
2017,01,15,15,24,6.90
2017,01,15,15,25,6.90
2017,01,15,15,26,6.90
2017,01,15,15,27,6.90
2017,01,15,15,28,6.90
2017,01,15,15,29,6.90
2017,01,15,15,30,6.90
2017,01,15,15,31,6.90
2017,01,15,15,32,6.90
2017,01,15,15,33,6.90
2017,01,15,15,34,6.90
2017,01,15,15,35,6.80
2017,01,15,15,36,6.80
2017,01,15,15,37,6.80
2017,01,15,15,38,6.80
2017,01,15,15,39,6.80
2017,01,15,15,40,6.80
2017,01,15,15,41,6.80
2017,01,15,15,42,6.80
2017,01,15,15,43,6.80
2017,01,15,15,44,6.80
2017,01,15,15,45,6.70
2017,01,15,15,46,6.70
2017,01,15,15,47,6.70
2017,01,15,15,48,6.70
2017,01,15,15,49,6.60
2017,01,15,15,50,6.60
2017,01,15,15,51,6.60
2017,01,15,15,52,6.60
2017,01,15,15,53,6.60
2017,01,15,15,54,6.60
2017,01,15,15,55,6.60
2017,01,15,15,56,6.60
2017,01,15,15,57,6.50
2017,01,15,15,58,6.50
2017,01,15,15,59,6.50
2017,01,15,16,00,6.40
2017,01,15,16,01,6.40
2017,01,15,16,02,6.40
2017,01,15,16,03,6.40
2017,01,15,16,04,6.40
2017,01,15,16,05,6.40
2017,01,15,16,06,6.30
2017,01,15,16,07,6.30
2017,01,15,16,08,6.30
2017,01,15,16,09,6.30
2017,01,15,16,10,6.20
2017,01,15,16,11,6.20
2017,01,15,16,12,6.20
2017,01,15,16,13,6.20
2017,01,15,16,14,6.20
2017,01,15,16,15,6.20
2017,01,15,16,16,6.20
2017,01,15,16,17,6.20
2017,01,15,16,18,6.20
2017,01,15,16,19,6.20
2017,01,15,16,20,6.20
